Regional Weather Roundup
Issued by NWS

Home | Current Version | Previous Version | Text Only | Print | Product List | Glossary Off
Versions: 1 2 3 4 5 6 7 8 9 10 11 12 13 14 15 16 17 18 19 20 21 22 23 24 25 26 27 28 29 30 31 32 33 34 35 36 37 38 39 40 41 42 43 44 45 46 47 48 49 50

000
ASUS45 KBOU 301107
RWRCO

WEATHER ROUNDUP FOR COLORADO
NATIONAL WEATHER SERVICE DENVER/BOULDER CO
500 AM MDT TUE SEP 30 2014

NOTE: "FAIR" INDICATES FEW OR NO CLOUDS BELOW 12000 FEET WITH NO
SIGNIFICANT WEATHER AND/OR OBSTRUCTIONS TO VISIBILITY.

COZ001>005-013-030-031-301200-
...NORTHWEST COLORADO...

CITY           SKY/WX    TMP DP  RH WIND       PRES   REMARKS
CRAIG          CLOUDY    46  38  73 W7        30.00F
HAYDEN         CLOUDY    45  36  70 W5        30.00F
MEEKER           N/A     44  38  79 CALM      30.03S
MOUNT WERNER   NOT AVBL
STEAMBOAT SPGS CLOUDY    41  39  92 CALM      30.00F
WALDEN         CLOUDY    36  34  93 SW10      29.98S
$$

COZ006>008-011-301200-
...WEST CENTRAL VALLEYS...

CITY           SKY/WX    TMP DP  RH WIND       PRES   REMARKS
GRAND JUNCTION MOCLDY    44  42  93 SE7       30.01F
MONTROSE       CLOUDY    39  38  96 S3        30.07F
EAGLE          CLOUDY    43  43 100 E6        30.07S
RIFLE          PTCLDY    43  39  86 SE3       30.04S
DELTA          FLURRIES  43  40  91 CALM      30.06F
NUCLA          MOCLDY    43  41  93 CALM      30.10F
$$

COZ017>023-064>068-301200-
...SOUTHWEST COLORADO...

CITY           SKY/WX    TMP DP  RH WIND       PRES   REMARKS
DURANGO        PTCLDY    37  35  92 N3        30.09F
CORTEZ         CLEAR     40  38  93 CALM      30.07S
PAGOSA SPRINGS PTCLDY    34  34 100 CALM      30.12F
TELLURIDE      NOT AVBL
WOLF CREEK PAS PTCLDY    23  23 100 SW13      30.21F WCI  11
$$

COZ009-010-012-014-032>034-037-058>063-301200-
...CENTRAL COLORADO...

CITY           SKY/WX    TMP DP  RH WIND       PRES   REMARKS
ASPEN          CLOUDY    37  34  89 S5        30.07F
BUENA VISTA    PTCLDY    44  27  50 W16G22    30.02R
COPPER MTN     CLOUDY    30  27  86 W23G33    30.14R FOG     WCI  17
BERTHOUD PASS  CLOUDY    23  21  93 NW39G51   30.06R WCI   3
COTTONWOOD PAS PTCLDY    41  25  52 W30G39    30.05R
GUNNISON       CLOUDY    36  30  80 N3        30.11S
KREMMLING      MOCLDY    39  34  81 W6        30.05R
LEADVILLE      CLOUDY    35  26  69 N5        30.09R WCI  31
SALIDA         PTCLDY    47  29  49 SW16G26   30.08R
SUNLIGHT       CLOUDY    34  32  93 CALM      30.14F FOG
WILKERSON PASS NOT AVBL
$$

COZ069>075-301200-
...SAN LUIS VALLEY/SANGRE DE CRISTO MOUNTAINS...

CITY           SKY/WX    TMP DP  RH WIND       PRES   REMARKS
ALAMOSA        CLEAR     32  29  88 CALM      30.09S
LA VETA PASS   NOT AVBL
SAGUACHE       CLEAR     39  30  70 NW6       30.09S
$$

COZ035-036-038>040-301200-
...NORTHERN COLORADO FRONT RANGE...

CITY           SKY/WX    TMP DP  RH WIND       PRES   REMARKS
DENVER INTL AP PTCLDY    45  39  79 S9        29.83F
DMNS CITY PARK   N/A     44  41  90 SW3       29.83F
AURORA         PTCLDY    45  38  76 S15       29.85F
FRONT RANGE AP PTCLDY    45  41  87 S8        29.85S
ERIE MUNI ARPT PTCLDY    45  42  88 CALM      29.80S
BOULDER MUN AP PTCLDY    45  43  93 S6        29.80S
CENTENNIAL     PTCLDY    42  37  82 S8        29.86S
BROOMFIELD     PTCLDY    54  34  47 W24       29.82S
FORT COLLINS   PTCLDY    45  43  93 NW6       29.82S
LONGMONT       PTCLDY    46  44  94 CALM      29.81S
$$

COZ041-046-047-076>085-087-088-301200-
...PIKES PEAK/PALMER DIVIDE AND SOUTHERN FOOTHILLS...

CITY           SKY/WX    TMP DP  RH WIND       PRES   REMARKS
COLO. SPRINGS  PTCLDY    44  36  73 NE9       29.92S
A. F. ACADEMY  CLEAR     44  31  59 S8        29.92R
ELLICOTT       NOT AVBL
FALCON         CLEAR     41  33  73 CALM      29.94S
FORT CARSON    CLEAR     39  36  86 NW8       29.89S
LIMON          CLEAR     39  38  96 NE5       29.89S
MONUMENT HILL  CLEAR     37  30  75 SW8       29.91S
TRINIDAD       CLEAR     44  32  62 NW10      29.92S
$$

COZ042>045-048>051-090-091-301200-
...NORTHEAST COLORADO...

CITY           SKY/WX    TMP DP  RH WIND       PRES   REMARKS
GREELEY ARPT   PTCLDY    46  37  71 CALM      29.82S
AKRON          MOCLDY    48  45  89 SW10      29.83S
BURLINGTON     PTCLDY    46  42  86 SW8       29.87R
WRAY           PTCLDY    48  48 100 S5        29.82S
STERLING       MOCLDY    52  50  93 SW13      29.79S
HOLYOKE        PTCLDY    52  46  82 S6        29.80S
FORT MORGAN    MOCLDY    47  44  89 CALM      29.83R
$$

COZ086-089-092>099-301200-
...SOUTHEAST COLORADO...

CITY           SKY/WX    TMP DP  RH WIND       PRES   REMARKS
PUEBLO         CLEAR     42  39  89 NW3       29.88S
LA JUNTA       CLEAR     48  44  86 VRB5      29.88S
LAMAR          CLEAR     47  44  90 CALM      29.85F
SPRINGFIELD      N/A     45  45 100 CALM      29.87F
$$


USA.gov is the U.S. government's official web portal to all federal, state and local government web resources and services.